Miscellaneous Local Product
Issued by NWS North Platte, NE

Home | Current Version | Previous Version | Graphics & Text | Print | Product List | Glossary On
Versions: 1 2 3 4 5 6 7 8 9 10 11 12 13 14 15 16 17 18 19 20 21 22 23 24 25 26 27 28 29 30 31 32 33 34 35 36 37 38 39 40 41 42 43 44 45 46 47 48 49 50
000
AXUS43 KLBF 182310
MISLBF


WESTERN AND NORTH CENTRAL NEBRASKA HOURLY WEATHER ROUNDUP
NATIONAL WEATHER SERVICE NORTH PLATTE NE
500 PM CST SAT NOV 18 2017

NOTE: "FAIR" INDICATES FEW OR NO CLOUDS BELOW 12,000 FEET WITH NO
SIGNIFICANT WEATHER AND/OR OBSTRUCTIONS TO VISIBILITY.

NOTE: STATIONS NOT REPORTING VARIABLES SUCH AS SKY/WEATHER OR
PRESSURE ARE PROVIDED BY RAWS AND APRS NETWORKS AND ARE NOT UNDER
NATIONAL WEATHER SERVICE QUALITY CONTROL.

...OBSERVATIONS IN AND NEAR THE EASTERN PANHANDLE OF NEBRASKA...

CITY           SKY/WX    TMP DP  RH WIND       PRES   REMARKS
PINE RIDGE     CLEAR     44  15  31 W16G23    30.14R
GORDON         FAIR      42  16  34 NW13      30.14R
CHADRON        CLEAR     43  16  33 W12       30.17R
ALLIANCE       CLEAR     41  14  33 NW13      30.16R
SIDNEY         CLEAR     40  15  36 NW20      30.18S WCI  30
CRESCENT LAKE    N/A     42  11  27 NW13G21     N/A
$$

...OBSERVATIONS IN NORTHERN NEBRASKA AND FAR SOUTHERN SOUTH DAKOTA...

CITY           SKY/WX    TMP DP  RH WIND       PRES   REMARKS
WINNER         FAIR      38  24  57 N8        30.13R WCI  32
VALENTINE      MOCLDY    44  22  41 N10       30.12R
THEDFORD       CLEAR     44  20  38 NW9       30.15R
AINSWORTH      CLEAR     41  23  48 NW14G22   30.12R
O`NEILL        CLEAR     37  26  62 NW9       30.13R WCI  31
ORD            CLEAR     42  25  50 NW13G23   30.13R
BROKEN BOW     CLEAR     44  22  41 NW12      30.14R
VALENTINE NWR    N/A     44  18  34 NW16G26     N/A
HALSEY           N/A     44  18  34 NW10G21     N/A
BUTTE            N/A     35  23  62 NW10        N/A  WCI  27
CHAMBERS         N/A     39  22  51 CALM        N/A
$$

...OBSERVATIONS IN SOUTHWEST NEBRASKA AND FAR NORTHEAST COLORADO...

CITY           SKY/WX    TMP DP  RH WIND       PRES   REMARKS
HOLYOKE        FAIR      45  14  29 NW12      30.20R
IMPERIAL       CLEAR     45  14  28 NW15      30.20R
OGALLALA       CLEAR     45  16  30 NW10      30.18R
NORTH PLATTE   CLEAR     45  19  35 NW15G24   30.17R
MCCOOK         CLEAR     46  20  35 NW15      30.19R
LEXINGTON      CLEAR     45  22  40 NW13      30.17R
STAPLETON        N/A     42  22  44 N3G12       N/A
GOTHENBURG       N/A     45  20  37 NW7         N/A
CALLAWAY         N/A     43  23  45 NW9         N/A
$$

...OBSERVATIONS IN CENTRAL LINCOLN COUNTY AREA...

CITY           SKY/WX    TMP DP  RH WIND       PRES   REMARKS
N.P. AIRPORT   CLEAR     45  19  35 NW15G24   30.17R
N.P. DOWNTOWN    N/A     44  21  40 NW5         N/A
N.P. SOUTHEAST   N/A     45  20  36 NW7G15      N/A
N.P. HILLCREST   N/A     44  21  39 NW12G18     N/A
$$

...SOME OBSERVATIONS FROM AROUND THE REGION...

CITY           SKY/WX    TMP DP  RH WIND       PRES   REMARKS
DENVER         PTCLDY    41  22  46 SE8       30.18R
LIMON          CLEAR     40  13  33 S6        30.23R
ASPEN          CLOUDY    28  12  51 NW5       30.33R WCI  23
LARAMIE        CLEAR     29  14  53 W18       30.19R WCI  16
CASPER         CLEAR     32  22  66 SW17      30.17S WCI  21
CHEYENNE       CLEAR     37  13  37 W18       30.18R WCI  27
SCOTTSBLUFF    CLEAR     42  14  32 W12       30.18R
GRAND ISLAND   CLEAR     44  27  51 NW13      30.14R
OMAHA          CLEAR     40  25  55 NW15      30.09R WCI  32
SIOUX FALLS    CLEAR     32  17  54 NW17      30.07R WCI  21
PIERRE         CLEAR     32  22  66 N7        30.13R WCI  26
RAPID CITY     CLOUDY    42  19  39 NW15      30.13R
BISMARCK       CLEAR     33  18  53 W8        30.11S WCI  26
KANSAS CITY    PTCLDY    47  31  53 NW13G22   30.03R
HILL CITY      CLEAR     49  21  33 NW10G23   30.20R
WICHITA        PTCLDY    53  24  32 N18G28    30.16R
DODGE CITY     CLEAR     49  17  28 N14G23    30.22R
OKLAHOMA CITY  PTCLDY    53  31  42 N14       30.18R
DALLAS         MOCLDY    60  38  43 N21       30.12R
AMARILLO       CLEAR     50   9  19 N17       30.28R
$$




USA.gov is the U.S. government's official web portal to all federal, state and local government web resources and services.